Location: Nianha
(10.8000°N, 4.6333°W)
Time: 04:34:50
(UTC+00:00)

Helios 1A Rocket - Pass Details

Date: 14 November 2019
Orbit: 564 x 587 km, 98.3° (Epoch: 23 January)

Event Time Altitude Azimuth Distance (km) Brightness Sun altitude
Rises 05:22:29 0° 15° (NNE) 2,774 6.4 -12.8°
Reaches altitude 10° 05:24:39 10° 17° (NNE) 1,873 5.5 -12.3°
Maximum altitude 05:28:41 71° 102° (ESE) 602 3.2 -11.4°
Drops below altitude 10° 05:32:42 10° 186° (S) 1,860 5.7 -10.4°
Sets 05:34:50 0° 188° (S) 2,754 6.5 -9.9°
